Andover, VA

7:49 AM EDT on July 30, 2016 (GMT -0400)
Lonesome Pine

Weather History for KLNP - January, 2012

Change the Weather History Date:

Sunday, January 29, 2012

  Actual Average Record
Temperature  
Mean Temperature 32 °F -  
Max Temperature 42 °F 40 °F 64 °F (2013)
Min Temperature 21 °F 24 °F -2 °F (2014)
Degree Days  
Heating Degree Days 34    
Moisture  
Dew Point 13 °F    
Average Humidity 46    
Maximum Humidity 80    
Minimum Humidity 27    
Precipitation  
Precipitation 0.00 in - - ()
Sea Level Pressure  
Sea Level Pressure 30.23 in    
Wind  
Wind Speed 9 mph (WSW)    
Max Wind Speed 22 mph    
Max Gust Speed 30 mph    
Visibility 10 miles    
Events      
Averages and records for this station are not official NWS values.
T = Trace of Precipitation, MM = Missing Value Source: NWS Daily Summary

Daily Weather History Graph

Daily Weather History Graph

Search for Another Location

Airport or City:

Trip Planner

Search our weather history database for the weather conditions in past years. The results will help you decide how hot, cold, wet, or windy it might be!

Date:

Astronomy

Jan. 29, 2012 Rise Set
Actual Time 7:35 AM EST 5:51 PM EST
Civil Twilight 7:07 AM EST 6:19 PM EST
Nautical Twilight 6:36 AM EST 6:50 PM EST
Astronomical Twilight 6:05 AM EST 7:20 PM EST
Moon 10:36 AM EST (1/29) No Moon Set
Length of Visible Light 11h 11m
Length of Day
10h 16m
Waxing Crescent, 36% of the Moon is Illuminated
Jan 29
Waxing Crescent
Jan 30
First Quarter
Feb 7
Full
Feb 14
Last Quarter
Feb 21
New

Hourly Weather History & Observations

Time (EST) Temp. Windchill Dew Point Humidity Pressure Visibility Wind Dir Wind Speed Gust Speed Precip Events Conditions
12:15 AM 30.2 °F 23.4 °F 12.2 °F 47% 30.24 in 10.0 mi West 6.9 mph - N/A   Unknown
12:35 AM 28.4 °F 23.3 °F 14.0 °F 55% 30.24 in 10.0 mi West 4.6 mph - N/A   Unknown
12:55 AM 28.4 °F 22.2 °F 14.0 °F 55% 30.24 in 10.0 mi WNW 5.8 mph - N/A   Unknown
1:15 AM 28.4 °F 21.2 °F 14.0 °F 55% 30.24 in 10.0 mi WNW 6.9 mph - N/A   Unknown
1:35 AM 28.4 °F 21.2 °F 14.0 °F 55% 30.24 in 10.0 mi WNW 6.9 mph - N/A   Unknown
1:55 AM 28.4 °F 23.3 °F 12.2 °F 51% 30.25 in 10.0 mi WNW 4.6 mph - N/A   Unknown
2:15 AM 28.4 °F 23.3 °F 12.2 °F 51% 30.25 in 10.0 mi WNW 4.6 mph - N/A   Unknown
2:35 AM 28.4 °F 22.2 °F 14.0 °F 55% 30.24 in 10.0 mi WNW 5.8 mph - N/A   Unknown
2:55 AM 26.6 °F 22.6 °F 14.0 °F 59% 30.25 in 10.0 mi WNW 3.5 mph - N/A   Unknown
3:15 AM 26.6 °F - 14.0 °F 59% 30.25 in 10.0 mi Calm Calm - N/A   Unknown
3:35 AM 26.6 °F - 14.0 °F 59% 30.25 in 10.0 mi Calm Calm - N/A   Unknown
3:55 AM 24.8 °F 20.5 °F 15.8 °F 69% 30.25 in 10.0 mi SW 3.5 mph - N/A   Unknown
4:15 AM 23.0 °F 17.0 °F 14.0 °F 68% 30.25 in 10.0 mi SW 4.6 mph - N/A   Unknown
4:35 AM 24.8 °F 16.9 °F 15.8 °F 69% 30.25 in 10.0 mi WSW 6.9 mph - N/A   Unknown
4:55 AM 24.8 °F 17.9 °F 15.8 °F 69% 30.25 in 10.0 mi WSW 5.8 mph - N/A   Unknown
5:15 AM 24.8 °F 20.5 °F 15.8 °F 69% 30.25 in 10.0 mi WSW 3.5 mph - N/A   Unknown
5:35 AM 23.0 °F - 15.8 °F 74% 30.25 in 10.0 mi Calm Calm - N/A   Unknown
5:55 AM 23.0 °F 18.4 °F 15.8 °F 74% 30.26 in 10.0 mi SW 3.5 mph - N/A   Unknown
6:15 AM 21.2 °F 13.6 °F 15.8 °F 80% 30.25 in 10.0 mi SW 5.8 mph - N/A   Unknown
6:35 AM 23.0 °F 13.9 °F 15.8 °F 74% 30.25 in 10.0 mi SW 8.1 mph - N/A   Unknown
6:55 AM 23.0 °F 14.7 °F 15.8 °F 74% 30.26 in 10.0 mi SW 6.9 mph - N/A   Unknown
7:15 AM 23.0 °F 14.7 °F 15.8 °F 74% 30.26 in 10.0 mi SW 6.9 mph - N/A   Unknown
7:55 AM 24.8 °F 16.9 °F 15.8 °F 69% 30.27 in 10.0 mi SW 6.9 mph - N/A   Unknown
8:35 AM 28.4 °F 21.2 °F 15.8 °F 59% 30.28 in 10.0 mi SW 6.9 mph - N/A   Unknown
8:55 AM 28.4 °F 20.4 °F 15.8 °F 59% 30.28 in 10.0 mi SW 8.1 mph - N/A   Unknown
9:15 AM 30.2 °F 21.3 °F 15.8 °F 55% 30.28 in 10.0 mi WSW 10.4 mph - N/A   Unknown
9:35 AM 30.2 °F 20.8 °F 14.0 °F 51% 30.28 in 10.0 mi WSW 11.5 mph - N/A   Unknown
9:55 AM 33.8 °F 25.8 °F 12.2 °F 41% 30.29 in 10.0 mi SW 10.4 mph 16.1 mph N/A   Unknown
10:15 AM 33.8 °F 23.9 °F 8.6 °F 35% 30.29 in 10.0 mi SW 15.0 mph - N/A   Unknown
10:35 AM 33.8 °F 24.3 °F 8.6 °F 35% 30.29 in 10.0 mi WSW 13.8 mph 18.4 mph N/A   Unknown
10:55 AM 35.6 °F 26.2 °F 10.4 °F 35% 30.29 in 10.0 mi SW 15.0 mph 20.7 mph N/A   Unknown
11:15 AM 35.6 °F 25.9 °F 8.6 °F 33% 30.28 in 10.0 mi WSW 16.1 mph 19.6 mph N/A   Unknown
11:35 AM 37.4 °F 28.2 °F 8.6 °F 30% 30.27 in 10.0 mi WSW 16.1 mph 20.7 mph N/A   Unknown
11:55 AM 37.4 °F 27.5 °F 8.6 °F 30% 30.26 in 10.0 mi SW 18.4 mph 24.2 mph N/A   Unknown
12:15 PM 37.4 °F 27.8 °F 10.4 °F 33% 30.25 in 10.0 mi SW 17.3 mph - N/A   Unknown
12:55 PM 39.2 °F 30.5 °F 10.4 °F 31% 30.22 in 10.0 mi SW 16.1 mph 23.0 mph N/A   Unknown
1:15 PM 39.2 °F 30.2 °F 10.4 °F 31% 30.21 in 10.0 mi SW 17.3 mph 26.5 mph N/A   Unknown
1:35 PM 41.0 °F 32.2 °F 10.4 °F 29% 30.20 in 10.0 mi SW 18.4 mph 21.9 mph N/A   Unknown
1:55 PM 41.0 °F 32.2 °F 10.4 °F 29% 30.19 in 10.0 mi SW 18.4 mph 26.5 mph N/A   Unknown
2:15 PM 42.8 °F 34.5 °F 10.4 °F 27% 30.18 in 10.0 mi SSW 18.4 mph 29.9 mph N/A   Unknown
2:35 PM 42.8 °F 34.3 °F 10.4 °F 27% 30.17 in 10.0 mi SW 19.6 mph 26.5 mph N/A   Unknown
2:55 PM 42.8 °F 34.0 °F 10.4 °F 27% 30.18 in 10.0 mi SW 20.7 mph 27.6 mph N/A   Unknown
3:15 PM 42.8 °F 34.8 °F 12.2 °F 29% 30.18 in 10.0 mi SW 17.3 mph - N/A   Unknown
3:35 PM 42.8 °F 34.3 °F 12.2 °F 29% 30.18 in 10.0 mi SSW 19.6 mph 25.3 mph N/A   Unknown
3:55 PM 42.8 °F 34.8 °F 10.4 °F 27% 30.18 in 10.0 mi SW 17.3 mph 26.5 mph N/A   Unknown
4:15 PM 41.0 °F 31.4 °F 10.4 °F 29% 30.18 in 10.0 mi SSW 21.9 mph 28.8 mph N/A   Unknown
4:35 PM 39.2 °F 29.3 °F 10.4 °F 31% 30.18 in 10.0 mi SSW 20.7 mph 25.3 mph N/A   Unknown
4:55 PM 39.2 °F 29.6 °F 10.4 °F 31% 30.18 in 10.0 mi SSW 19.6 mph 24.2 mph N/A   Unknown
5:15 PM 39.2 °F 30.5 °F 12.2 °F 33% 30.18 in 10.0 mi SW 16.1 mph 27.6 mph N/A   Unknown
5:35 PM 39.2 °F 31.2 °F 10.4 °F 31% 30.18 in 10.0 mi SW 13.8 mph 23.0 mph N/A   Unknown
5:55 PM 39.2 °F 30.5 °F 12.2 °F 33% 30.19 in 10.0 mi SW 16.1 mph 20.7 mph N/A   Unknown
6:15 PM 37.4 °F 28.5 °F 12.2 °F 36% 30.19 in 10.0 mi SW 15.0 mph 19.6 mph N/A   Unknown
6:35 PM 37.4 °F 28.5 °F 12.2 °F 36% 30.20 in 10.0 mi SW 15.0 mph 20.7 mph N/A   Unknown
6:55 PM 37.4 °F 29.8 °F 12.2 °F 36% 30.21 in 10.0 mi SW 11.5 mph 16.1 mph N/A   Unknown
7:15 PM 37.4 °F 30.3 °F 12.2 °F 36% 30.21 in 10.0 mi SW 10.4 mph - N/A   Unknown
7:35 PM 37.4 °F 30.3 °F 12.2 °F 36% 30.22 in 10.0 mi SW 10.4 mph - N/A   Unknown
7:55 PM 35.6 °F 28.6 °F 14.0 °F 41% 30.22 in 10.0 mi SW 9.2 mph - N/A   Unknown
8:15 PM 35.6 °F 28.6 °F 12.2 °F 38% 30.22 in 10.0 mi SW 9.2 mph - N/A   Unknown
8:35 PM 35.6 °F 29.2 °F 12.2 °F 38% 30.23 in 10.0 mi WSW 8.1 mph - N/A   Unknown
8:55 PM 37.4 °F 31.4 °F 12.2 °F 36% 30.23 in 10.0 mi West 8.1 mph 19.6 mph N/A   Unknown
9:15 PM 37.4 °F 29.3 °F 12.2 °F 36% 30.22 in 10.0 mi West 12.7 mph - N/A   Unknown
9:35 PM 37.4 °F 30.3 °F 12.2 °F 36% 30.23 in 10.0 mi West 10.4 mph - N/A   Unknown
9:55 PM 37.4 °F 28.9 °F 12.2 °F 36% 30.23 in 10.0 mi West 13.8 mph 21.9 mph N/A   Unknown
10:15 PM 37.4 °F 31.4 °F 12.2 °F 36% 30.23 in 10.0 mi West 8.1 mph - N/A   Unknown
10:35 PM 37.4 °F 29.8 °F 12.2 °F 36% 30.24 in 10.0 mi West 11.5 mph 18.4 mph N/A   Unknown
10:55 PM 37.4 °F 28.9 °F 14.0 °F 38% 30.25 in 10.0 mi West 13.8 mph 17.3 mph N/A   Unknown
11:15 PM 37.4 °F 31.4 °F 14.0 °F 38% 30.25 in 10.0 mi West 8.1 mph - N/A   Unknown
11:35 PM 37.4 °F 32.1 °F 14.0 °F 38% 30.26 in 10.0 mi WNW 6.9 mph - N/A   Unknown
11:55 PM 35.6 °F 30.7 °F 15.8 °F 44% 30.26 in 10.0 mi WNW 5.8 mph - N/A   Unknown